Back to catalog

CZ-6A DEB

AlivePO
NORAD 61076·DEBRIS·🇨🇳 China

Launched Aug 6, 2024 from Taiyuan Satellite Launch Center

Loading…

Next Passes (next 24 hours)

TLE

FreshSource: Space-Track

Epoch: Sep 14, 2026, 06:54 UTC

1 61076U 24140MS  26257.28795887  .00000373  00000-0  16778-3 0  9992
2 61076  89.0107 266.0330 0045738 245.7547 113.8860 14.19861910106798

Track CZ-6A DEB in real time with AllMySat

Download on the App Store